When you browse on this site, cookies collect data to enhance your experience and personalize the content and advertising you see.
Visit our Privacy Policy to learn more. By continuing to use the site, you agree to this use of cookies and data.
  • In Hungary
  • List of Countries
  • For 7 days
  • Water Temperature
  • Satellite Maps
  • Weather Map
  • News
  • Weather Widgets
  • user-avatar
    Login

    Hourly Weather Safaga

    Today, 21 January, Monday

    Time Temperature Precipitation Wind Pressure Humidity
    00:00 +11°C° 0 mm 0 mps 705 mmHg 28%
    01:00 +11°C° 0 mm 0 mps 705 mmHg 28%
    02:00 +11°C° 0 mm 0 mps 705 mmHg 29%
    03:00 +10°C° 0 mm 0 mps 705 mmHg 30%
    04:00 +10°C° 0 mm 0 mps 705 mmHg 32%
    05:00 +10°C° 0 mm 0 mps 705 mmHg 33%
    06:00 +12°C° 0 mm 0 mps 705 mmHg 31%
    07:00 +13°C° 0 mm 0 mps 705 mmHg 29%
    08:00 +18°C° 0 mm 1 mps 706 mmHg 30%
    09:00 +19°C° 0 mm 1 mps 706 mmHg 26%
    10:00 +21°C° 0 mm 1 mps 707 mmHg 22%
    11:00 +22°C° 0 mm 1 mps 707 mmHg 18%
    12:00 +23°C° 0 mm 1 mps 707 mmHg 17%
    13:00 +24°C° 0 mm 1 mps 706 mmHg 15%
    14:00 +25°C° 0 mm 2 mps 706 mmHg 13%
    15:00 +24°C° 0 mm 2 mps 706 mmHg 13%
    16:00 +23°C° 0 mm 2 mps 706 mmHg 14%
    17:00 +21°C° 0 mm 2 mps 705 mmHg 14%
    18:00 +21°C° 0 mm 1 mps 705 mmHg 15%
    19:00 +19°C° 0 mm 1 mps 705 mmHg 16%
    20:00 +15°C° 0 mm 0 mps 705 mmHg 18%
    21:00 +16°C° 0 mm 1 mps 705 mmHg 16%
    22:00 +16°C° 0 mm 1 mps 705 mmHg 15%
    23:00 +15°C° 0 mm 1 mps 705 mmHg 14%

    Tomorrow, 22 January, Tuesday

    Time Temperature Precipitation Wind Pressure Humidity
    00:00 +15°C° 0 mm 1 mps 705 mmHg 12%
    01:00 +15°C° 0 mm 1 mps 705 mmHg 10%
    02:00 +14°C° 0 mm 1 mps 705 mmHg 8%
    03:00 +14°C° 0 mm 1 mps 704 mmHg 8%
    04:00 +13°C° 0 mm 1 mps 704 mmHg 8%
    05:00 +13°C° 0 mm 1 mps 704 mmHg 8%
    06:00 +14°C° 0 mm 1 mps 705 mmHg 8%
    07:00 +15°C° 0 mm 1 mps 705 mmHg 8%
    08:00 +18°C° 0 mm 1 mps 706 mmHg 8%
    09:00 +18°C° 0 mm 2 mps 706 mmHg 8%
    10:00 +20°C° 0 mm 2 mps 706 mmHg 8%
    11:00 +22°C° 0 mm 3 mps 707 mmHg 8%
    12:00 +24°C° 0 mm 3 mps 706 mmHg 8%
    13:00 +23°C° 0 mm 4 mps 706 mmHg 7%
    14:00 +25°C° 0 mm 4 mps 706 mmHg 7%
    15:00 +24°C° 0 mm 3 mps 705 mmHg 8%
    16:00 +22°C° 0 mm 3 mps 705 mmHg 10%
    17:00 +21°C° 0 mm 2 mps 705 mmHg 11%
    18:00 +19°C° 0 mm 2 mps 705 mmHg 14%
    19:00 +18°C° 0 mm 1 mps 705 mmHg 18%
    20:00 +15°C° 0 mm 1 mps 705 mmHg 21%
    21:00 +14°C° 0 mm 1 mps 705 mmHg 23%
    22:00 +12°C° 0 mm 0 mps 705 mmHg 26%
    23:00 +12°C° 0 mm 0 mps 704 mmHg 28%

    Day after tomorrow, 23 January, Wednesday

    Time Temperature Precipitation Wind Pressure Humidity
    00:00 +11°C° 0 mm 0 mps 704 mmHg 31%
    01:00 +11°C° 0 mm 0 mps 704 mmHg 34%
    02:00 +10°C° 0 mm 0 mps 704 mmHg 36%
    03:00 +10°C° 0 mm 0 mps 703 mmHg 39%
    04:00 +9°C° 0 mm 0 mps 703 mmHg 42%
    05:00 +9°C° 0 mm 0 mps 703 mmHg 44%
    06:00 +12°C° 0 mm 1 mps 704 mmHg 41%
    07:00 +13°C° 0 mm 1 mps 704 mmHg 38%
    08:00 +15°C° 0 mm 1 mps 705 mmHg 34%
    09:00 +18°C° 0 mm 1 mps 705 mmHg 30%
    10:00 +20°C° 0 mm 1 mps 705 mmHg 25%
    11:00 +21°C° 0 mm 2 mps 705 mmHg 20%
    12:00 +23°C° 0 mm 2 mps 705 mmHg 17%
    13:00 +24°C° 0 mm 2 mps 704 mmHg 14%
    14:00 +25°C° 0 mm 3 mps 704 mmHg 11%
    15:00 +24°C° 0 mm 2 mps 703 mmHg 12%
    16:00 +23°C° 0 mm 2 mps 703 mmHg 13%
    17:00 +21°C° 0 mm 1 mps 703 mmHg 14%
    18:00 +20°C° 0 mm 1 mps 703 mmHg 21%
    19:00 +18°C° 0 mm 1 mps 703 mmHg 28%
    20:00 +15°C° 0 mm 1 mps 703 mmHg 35%
    21:00 +15°C° 0 mm 1 mps 703 mmHg 41%
    22:00 +14°C° 0 mm 1 mps 703 mmHg 46%
    23:00 +14°C° 0 mm 1 mps 702 mmHg 52%

    24 January, Thursday

    Time Temperature Precipitation Wind Pressure Humidity
    00:00 +13°C° 0 mm 1 mps 702 mmHg 53%
    01:00 +13°C° 0 mm 1 mps 702 mmHg 54%
    02:00 +13°C° 0 mm 1 mps 702 mmHg 55%
    03:00 +13°C° 0 mm 1 mps 701 mmHg 55%
    04:00 +13°C° 0 mm 1 mps 701 mmHg 55%
    05:00 +13°C° 0 mm 1 mps 701 mmHg 55%
    06:00 +14°C° 0 mm 1 mps 702 mmHg 53%
    07:00 +16°C° 0 mm 1 mps 702 mmHg 51%
    08:00 +17°C° 0 mm 2 mps 703 mmHg 50%
    09:00 +19°C° 0 mm 2 mps 703 mmHg 43%
    10:00 +21°C° 0 mm 3 mps 703 mmHg 36%
    11:00 +25°C° 0 mm 3 mps 703 mmHg 30%
    12:00 +26°C° 0 mm 5 mps 703 mmHg 24%
    13:00 +28°C° 0 mm 6 mps 703 mmHg 19%
    14:00 +31°C° 0 mm 8 mps 703 mmHg 13%
    15:00 +29°C° 0 mm 6 mps 703 mmHg 14%
    16:00 +28°C° 0 mm 5 mps 703 mmHg 15%
    17:00 +26°C° 0 mm 4 mps 703 mmHg 16%
    18:00 +25°C° 0 mm 3 mps 703 mmHg 14%
    19:00 +22°C° 0 mm 3 mps 703 mmHg 12%
    20:00 +20°C° 0 mm 3 mps 703 mmHg 11%
    21:00 +19°C° 0 mm 2 mps 703 mmHg 9%
    22:00 +18°C° 0 mm 2 mps 703 mmHg 7%
    23:00 +19°C° 0 mm 1 mps 703 mmHg 5%

    25 January, Friday

    Time Temperature Precipitation Wind Pressure Humidity
    00:00 +18°C° 0 mm 1 mps 703 mmHg 5%
    01:00 +18°C° 0 mm 1 mps 702 mmHg 5%
    02:00 +16°C° 0 mm 1 mps 702 mmHg 5%
    03:00 +14°C° 0 mm 0 mps 702 mmHg 7%
    04:00 +14°C° 0 mm 0 mps 702 mmHg 10%
    05:00 +13°C° 0 mm 0 mps 702 mmHg 12%
    06:00 +15°C° 0 mm 0 mps 703 mmHg 13%
    07:00 +16°C° 0 mm 0 mps 704 mmHg 14%
    08:00 +18°C° 0 mm 0 mps 704 mmHg 16%
    09:00 +19°C° 0 mm 0 mps 705 mmHg 15%
    10:00 +21°C° 0 mm 0 mps 705 mmHg 15%
    11:00 +25°C° 0 mm 1 mps 705 mmHg 15%
    12:00 +26°C° 0 mm 1 mps 705 mmHg 15%
    13:00 +27°C° 0 mm 1 mps 704 mmHg 15%
    14:00 +28°C° 0 mm 2 mps 704 mmHg 14%
    15:00 +27°C° 0 mm 2 mps 703 mmHg 15%
    16:00 +26°C° 0 mm 1 mps 703 mmHg 16%
    17:00 +25°C° 0 mm 1 mps 703 mmHg 17%
    18:00 +24°C° 0 mm 1 mps 703 mmHg 21%
    19:00 +22°C° 0 mm 1 mps 703 mmHg 26%
    20:00 +21°C° 0 mm 1 mps 703 mmHg 30%
    21:00 +19°C° 0 mm 0 mps 703 mmHg 34%
    22:00 +18°C° 0 mm 0 mps 703 mmHg 38%
    23:00 +18°C° 0 mm 0 mps 703 mmHg 41%

    26 January, Saturday

    Time Temperature Precipitation Wind Pressure Humidity
    00:00 +18°C° 0 mm 0 mps 702 mmHg 42%
    01:00 +18°C° 0 mm 0 mps 702 mmHg 43%
    02:00 +19°C° 0 mm 1 mps 702 mmHg 44%
    03:00 +19°C° 0 mm 1 mps 702 mmHg 47%
    04:00 +19°C° 0 mm 1 mps 702 mmHg 50%
    05:00 +19°C° 0 mm 1 mps 702 mmHg 53%
    06:00 +19°C° 0 mm 1 mps 702 mmHg 54%
    07:00 +20°C° 0 mm 1 mps 702 mmHg 55%
    08:00 +20°C° 0 mm 1 mps 703 mmHg 56%
    09:00 +21°C° 0 mm 1 mps 703 mmHg 52%
    10:00 +22°C° 0 mm 1 mps 703 mmHg 49%
    11:00 +23°C° 0 mm 1 mps 703 mmHg 45%
    12:00 +24°C° 0 mm 1 mps 703 mmHg 42%
    13:00 +25°C° 0 mm 1 mps 702 mmHg 39%
    14:00 +25°C° 0 mm 1 mps 702 mmHg 36%
    15:00 +25°C° 0 mm 1 mps 702 mmHg 38%
    16:00 +25°C° 0 mm 1 mps 702 mmHg 40%
    17:00 +24°C° 0 mm 1 mps 701 mmHg 43%
    18:00 +23°C° 0 mm 1 mps 701 mmHg 49%
    19:00 +22°C° 0 mm 1 mps 702 mmHg 56%
    20:00 +21°C° 0 mm 1 mps 702 mmHg 63%
    21:00 +21°C° 0 mm 1 mps 701 mmHg 68%
    22:00 +20°C° 0 mm 1 mps 701 mmHg 73%
    23:00 +20°C° 0 mm 1 mps 701 mmHg 78%
    Show more